Private Wetterstation Sandau
Wetterdaten: Samstag, 28.07.2012
Datum Zeit Temp. A. Feuchte A. Luftdruck Regen Wind Richtung Richtung Taupunkt Windchill
28.07.2012 20:46 21,1 C 73 % 1009,3 hPa 7,8 l/m 0,0 km/h (0 Bft) W-NW 292 16,1 C 21,1 C
28.07.2012 20:51 21,0 C 72 % 1009,5 hPa 0,0 l/m 8,6 km/h (2 Bft) N-NO 22 15,8 C 21,0 C
28.07.2012 20:56 20,9 C 72 % 1009,5 hPa 0,0 l/m 2,9 km/h (1 Bft) N-NO 22 15,7 C 20,9 C
28.07.2012 21:01 20,8 C 73 % 1009,4 hPa 0,0 l/m 6,5 km/h (2 Bft) N-NO 22 15,8 C 20,8 C
28.07.2012 21:06 20,7 C 74 % 1009,6 hPa 0,0 l/m 2,9 km/h (1 Bft) N-NW 337 15,9 C 20,7 C
28.07.2012 21:11 20,6 C 74 % 1009,7 hPa 0,0 l/m 2,5 km/h (1 Bft) S 180 15,8 C 20,6 C
28.07.2012 21:16 20,5 C 74 % 1009,9 hPa 0,0 l/m 6,1 km/h (2 Bft) N-NW 337 15,7 C 20,5 C
28.07.2012 21:21 20,4 C 75 % 1009,9 hPa 0,0 l/m 4,3 km/h (1 Bft) N-NW 337 15,8 C 20,4 C
28.07.2012 21:26 20,4 C 75 % 1009,9 hPa 0,0 l/m 3,2 km/h (1 Bft) NW 315 15,8 C 20,4 C
28.07.2012 21:31 20,4 C 75 % 1009,9 hPa 0,0 l/m 2,5 km/h (1 Bft) N-NO 22 15,8 C 20,4 C
28.07.2012 21:36 20,3 C 75 % 1010,0 hPa 0,0 l/m 0,0 km/h (0 Bft) N 360 15,7 C 20,3 C
28.07.2012 21:41 20,3 C 76 % 1010,0 hPa 0,0 l/m 2,5 km/h (1 Bft) N 360 15,9 C 20,3 C
28.07.2012 21:46 20,2 C 76 % 1010,2 hPa 0,0 l/m 2,9 km/h (1 Bft) N 360 15,8 C 20,2 C
28.07.2012 21:51 20,1 C 76 % 1010,2 hPa 0,0 l/m 4,0 km/h (1 Bft) N-NO 22 15,7 C 20,1 C
28.07.2012 21:56 20,0 C 76 % 1010,0 hPa 0,0 l/m 3,2 km/h (1 Bft) N 360 15,6 C 20,0 C
28.07.2012 22:01 19,9 C 77 % 1010,3 hPa 0,0 l/m 3,2 km/h (1 Bft) N-NO 22 15,7 C 19,9 C
28.07.2012 22:06 19,9 C 77 % 1010,3 hPa 0,0 l/m 3,6 km/h (1 Bft) N 360 15,7 C 19,9 C
28.07.2012 22:11 19,9 C 76 % 1010,3 hPa 0,0 l/m 5,0 km/h (1 Bft) NO 45 15,5 C 19,9 C
28.07.2012 22:16 19,9 C 76 % 1010,4 hPa 0,0 l/m 2,5 km/h (1 Bft) N 360 15,5 C 19,9 C
28.07.2012 22:21 19,9 C 76 % 1010,6 hPa 0,0 l/m 0,0 km/h (0 Bft) N-NO 22 15,5 C 19,9 C
28.07.2012 22:26 19,8 C 76 % 1010,5 hPa 0,0 l/m 4,0 km/h (1 Bft) N-NW 337 15,4 C 19,8 C
28.07.2012 22:31 19,8 C 76 % 1010,7 hPa 0,0 l/m 2,2 km/h (1 Bft) N-NW 337 15,4 C 19,8 C
28.07.2012 22:36 19,8 C 76 % 1010,6 hPa 0,0 l/m 5,4 km/h (1 Bft) N-NW 337 15,4 C 19,8 C
28.07.2012 22:41 19,8 C 76 % 1010,6 hPa 0,0 l/m 0,0 km/h (0 Bft) N-NO 22 15,4 C 19,8 C
28.07.2012 22:46 19,8 C 76 % 1010,6 hPa 0,0 l/m 4,7 km/h (1 Bft) NW 315 15,4 C 19,8 C
28.07.2012 22:51 19,8 C 77 % 1010,7 hPa 0,0 l/m 2,2 km/h (1 Bft) N-NO 22 15,6 C 19,8 C
28.07.2012 22:56 19,7 C 77 % 1010,4 hPa 0,0 l/m 5,8 km/h (2 Bft) N-NW 337 15,5 C 19,7 C
28.07.2012 23:01 19,6 C 77 % 1010,5 hPa 0,0 l/m 2,5 km/h (1 Bft) N-NO 22 15,5 C 19,6 C
28.07.2012 23:06 19,6 C 77 % 1010,6 hPa 0,0 l/m 2,2 km/h (1 Bft) N 360 15,5 C 19,6 C
28.07.2012 23:11 19,6 C 77 % 1010,5 hPa 0,0 l/m 0,0 km/h (0 Bft) N 360 15,5 C 19,6 C
28.07.2012 23:16 19,6 C 77 % 1010,5 hPa 0,0 l/m 4,0 km/h (1 Bft) N 360 15,5 C 19,6 C
28.07.2012 23:21 19,5 C 77 % 1010,5 hPa 0,0 l/m 5,0 km/h (1 Bft) N-NO 22 15,4 C 19,5 C
28.07.2012 23:26 19,4 C 77 % 1010,6 hPa 0,0 l/m 1,4 km/h (1 Bft) N-NO 22 15,3 C 19,4 C
28.07.2012 23:31 19,4 C 77 % 1010,7 hPa 0,0 l/m 2,9 km/h (1 Bft) N 360 15,3 C 19,4 C
28.07.2012 23:36 19,3 C 77 % 1010,8 hPa 0,0 l/m 3,6 km/h (1 Bft) N-NO 22 15,2 C 19,3 C
28.07.2012 23:41 19,3 C 77 % 1010,8 hPa 0,0 l/m 0,0 km/h (0 Bft) N-NO 22 15,2 C 19,3 C
28.07.2012 23:46 19,4 C 77 % 1010,9 hPa 0,0 l/m 0,0 km/h (0 Bft) N-NO 22 15,3 C 19,4 C
28.07.2012 23:51 19,4 C 77 % 1010,7 hPa 0,0 l/m 1,8 km/h (1 Bft) N 360 15,3 C 19,4 C
28.07.2012 23:56 19,4 C 77 % 1010,6 hPa 0,0 l/m 0,0 km/h (0 Bft) NW 315 15,3 C 19,4 C
_ Min-Zeit 23:36 20:51 20:46 - 20:46 - - 23:36 23:36
Minimum _ 19,3 C 72 % 1009,3 hPa - 0,0 km/h (0 Bft) - - 15,2 C 19,3 C
_ Max-Zeit 20:46 22:01 23:46 20:46 20:51 - - 20:46 20:46
Maximum _ 21,1 C 77 % 1010,9 hPa 7,8 l/m 8,6 km/h
N-NO (2 Bft)
- - 16,1 C 21,1 C
Durchschnitt _ 20,4 C 75 % 1009,9 hPa #7,8 l/m 1,8 km/h (1 Bft) N-NO - 15,8 C 20,4 C
(c) by David Heller